FENGYUN 1C DEB, 36719

Orbit data source: Space-Track

FENGYUN 1C DEB, 36719 is space debris in SSO originally from a launch on Mon, 10 May 1999 UTC launched from the Taiyaun Space Center, China (TSC). Fengyun 1C debris stems from the Chinese weather satellite Fengyun-1C, which was intentionally destroyed by a Chinese anti-satellite missile in 2007. This event dramatically increased the amount of space debris, with thousands of trackable fragments posing hazards to satellites and human spaceflight. The Fengyun 1C debris cloud has become a focal point in discussions about space sustainability and the need for international regulations to prevent the creation of new debris.

Loading next visibility...
Identifier
36719, 1999-025EAR
Orbit
SSO
Country
Flag of CNCN / PRC
Related business
Manufacturer
Unknown
Mission
Spacecraft
Bus & Motor
Unknown
Mass
Unknown
Launch date (UTC)
1999-05-10 (27 years ago)
Launch vehicle
Unknown
Launch site
Taiyaun Space Center, China (TSC)
Object type
Payload
Rocket body
Debris
Shape & HBR
Unknown shape, 0.1 m
Radar Cross Section
Small (<0.1 m²)

Expand to show TLE details & history
Last TLE update: 1 week ago

TLE from 1 week ago
0 FENGYUN 1C DEB
1 36719U 99025EAR 26160.67318367  .00002127  00000-0  72268-3 0  9997
2 36719  98.5434 305.9832 0079743 298.3380  60.9779 14.35875172669185
Epoch: 2026-06-09T16:09Z
TLE epoch observation values (Epoch: 2026-06-09T16:09:23.069Z)
Latitude
-0.00005°
Longitude
165.59477°
Altitude
747.783 km
Speed
7.495 km/s
True Right ascension
20h 23m 55s
True Declination
0° 00' 00"
Sunlit
Object was in full shadow at epoch
Visualization orbit readout
Latitude
Unknown
Longitude
Unknown
Altitude
Unknown
Speed
Unknown
Apparent Right ascension
Unknown
Apparent Declination
Unknown
Sunlit
N/A
Visualization observer readout
Local Sidereal Time
21:15:57
Azimuth
Unknown
Elevation
Unknown
Doppler factor
Unknown
Orbital elements
Apogee altitude
826.284 km
Perigee altitude
712.293 km
Semi-major axis
7,147.426 km
Eccentricity
0.00797
Inclination
98.5434°
RAAN
305.9832°
Arg. of periapsis
298.338°
True anomaly
61.7808°
Mean anomaly
60.9779°
Eccentric anomaly
61.37896°
Mean motion
3.59185 °/min
Orbital period
100.23 mins
BSTAR
0.00072268
Loading maneuver chart data...
Computing Atmospheric mass density...

Documentation

Showing up to 5 results
|